Location: Fort Wayne
(41.1310°N, 85.1290°W)
Time: 13:35:18
(UTC-04:00)

COSMOS 2428 - Visible Passes

Search period start: 31 July 2014 00:00
Search period end: 10 August 2014 00:00
Orbit: 847 x 855 km, 71.0° (Epoch: 31 July)

Date Brightness Start Highest point End Pass type
(mag) Time Alt. Az. Time Alt. Az. Time Alt. Az.
31 Jul 5.1 00:05:02 10° WNW 00:07:10 12° W 00:09:18 10° WSW visible
31 Jul 2.7 22:05:51 10° NNW 22:11:34 86° ENE 22:16:23 15° SSE visible
31 Jul 5.1 23:52:50 10° WNW 23:54:58 12° W 23:57:06 10° WSW visible
01 Aug 2.7 21:53:39 10° NNW 21:59:22 86° ENE 22:04:50 11° SSE visible
01 Aug 5.2 23:40:38 10° WNW 23:42:46 12° W 23:44:53 10° WSW visible
02 Aug 2.7 21:41:27 10° NNW 21:47:10 86° ENE 21:52:51 10° SSE visible
02 Aug 5.2 23:28:25 10° WNW 23:30:33 12° W 23:32:41 10° WSW visible
03 Aug 2.8 21:29:14 10° NNW 21:34:57 87° ENE 21:40:39 10° SSE visible
03 Aug 5.2 23:16:13 10° WNW 23:18:21 12° W 23:20:29 10° WSW visible
04 Aug 2.8 21:17:02 10° NNW 21:22:45 87° ENE 21:28:26 10° SSE visible
04 Aug 5.3 23:04:01 10° WNW 23:06:08 12° W 23:08:16 10° WSW visible
05 Aug 5.3 22:51:48 10° WNW 22:53:56 12° W 22:56:04 10° WSW visible
06 Aug 5.3 22:39:36 10° WNW 22:41:43 12° W 22:43:51 10° WSW visible
07 Aug 5.4 22:27:23 10° WNW 22:29:31 12° W 22:31:39 10° WSW visible
08 Aug 5.4 22:15:10 10° WNW 22:17:18 12° W 22:19:26 10° WSW visible
09 Aug 5.5 22:02:57 10° WNW 22:05:05 12° W 22:07:13 10° WSW visible
